Time,TemperatureF,DewpointF,PressureIn,WindDirection,WindDirectionDegrees,WindSpeedMPH,WindSpeedGustMPH,Humidity,HourlyPrecipIn,Conditions,Clouds,dailyrainin,SoftwareType,DateUTC
2013-07-28 00:02:00,63.7,41.4,29.65,NNW,345,0.0,0.0,44,0.00,CLR,SKC,0.00,WeatherDisplay:10.37,2013-07-28 06:02:00,
2013-07-28 00:07:00,63.3,41.6,29.65,NNW,344,0.0,0.0,45,0.00,CLR,SKC,0.00,WeatherDisplay:10.37,2013-07-28 06:07:00,
2013-07-28 00:12:00,63.1,43.1,29.65,NNW,344,1.1,1.1,48,0.00,CLR,SKC,0.00,WeatherDisplay:10.37,2013-07-28 06:12:00,
2013-07-28 00:17:00,62.9,43.4,29.65,NNW,344,0.0,0.0,49,0.00,CLR,SKC,0.00,WeatherDisplay:10.37,2013-07-28 06:17:00,
2013-07-28 00:22:00,62.5,44.6,29.65,NNW,344,0.0,0.0,52,0.00,CLR,SKC,0.00,WeatherDisplay:10.37,2013-07-28 06:22:00,
2013-07-28 00:27:00,61.9,42.0,29.65,NNW,344,1.1,0.0,48,0.00,CLR,SKC,0.00,WeatherDisplay:10.37,2013-07-28 06:27:00,
2013-07-28 00:32:00,61.8,43.5,29.65,NNW,344,0.0,0.0,51,0.00,CLR,SKC,0.00,WeatherDisplay:10.37,2013-07-28 06:32:00,
2013-07-28 00:37:00,61.7,44.9,29.65,NNW,344,0.0,0.0,54,0.00,CLR,SKC,0.00,WeatherDisplay:10.37,2013-07-28 06:37:00,
2013-07-28 00:43:00,61.3,41.4,29.65,NNW,344,0.0,0.0,48,0.00,CLR,SKC,0.00,WeatherDisplay:10.37,2013-07-28 06:43:00,
2013-07-28 00:48:00,61.2,44.9,29.65,NNW,344,0.0,0.0,55,0.00,CLR,SKC,0.00,WeatherDisplay:10.37,2013-07-28 06:48:00,
2013-07-28 00:53:00,60.7,44.4,29.65,NNW,344,0.0,0.0,55,0.00,CLR,SKC,0.00,WeatherDisplay:10.37,2013-07-28 06:53:00,
2013-07-28 00:58:00,60.2,43.0,29.65,NNW,344,0.0,0.0,53,0.00,CLR,SKC,0.00,WeatherDisplay:10.37,2013-07-28 06:58:00,
2013-07-28 01:03:00,60.1,41.9,29.65,NNW,344,0.0,0.0,51,0.00,CLR,SKC,0.00,WeatherDisplay:10.37,2013-07-28 07:03:00,
2013-07-28 01:08:00,60.1,40.3,29.65,NNW,344,0.0,0.0,48,0.00,CLR,SKC,0.00,WeatherDisplay:10.37,2013-07-28 07:08:00,
2013-07-28 01:13:00,60.0,40.8,29.65,NNW,344,0.0,0.0,49,0.00,CLR,SKC,0.00,WeatherDisplay:10.37,2013-07-28 07:13:00,
2013-07-28 01:18:00,59.8,43.1,29.65,NNW,344,0.0,0.0,54,0.00,CLR,SKC,0.00,WeatherDisplay:10.37,2013-07-28 07:18:00,
2013-07-28 01:23:00,59.4,41.3,29.65,NNW,344,0.0,0.0,51,0.00,CLR,SKC,0.00,WeatherDisplay:10.37,2013-07-28 07:23:00,
2013-07-28 01:28:00,59.1,41.5,29.65,NNW,344,0.0,0.0,52,0.00,CLR,SKC,0.00,WeatherDisplay:10.37,2013-07-28 07:28:00,
2013-07-28 01:33:00,58.7,43.0,29.65,NNW,344,0.0,0.0,56,0.00,CLR,SKC,0.00,WeatherDisplay:10.37,2013-07-28 07:33:00,
2013-07-28 01:38:00,58.5,42.4,29.65,NNW,344,0.0,0.0,55,0.00,CLR,SKC,0.00,WeatherDisplay:10.37,2013-07-28 07:38:00,
2013-07-28 01:43:00,58.2,43.5,29.65,NNW,344,0.0,0.0,58,0.00,CLR,SKC,0.00,WeatherDisplay:10.37,2013-07-28 07:43:00,
2013-07-28 01:48:00,57.9,42.3,29.65,NNW,344,0.0,0.0,56,0.00,CLR,SKC,0.00,WeatherDisplay:10.37,2013-07-28 07:48:00,
2013-07-28 01:54:00,57.5,40.5,29.65,NNW,344,0.0,0.0,53,0.00,CLR,SKC,0.00,WeatherDisplay:10.37,2013-07-28 07:54:00,
2013-07-28 01:59:00,57.6,42.5,29.65,NNW,344,0.0,0.0,57,0.00,CLR,SKC,0.00,WeatherDisplay:10.37,2013-07-28 07:59:00,
2013-07-28 02:04:00,57.6,43.8,29.65,NNW,344,0.0,0.0,60,0.00,CLR,SKC,0.00,WeatherDisplay:10.37,2013-07-28 08:04:00,
2013-07-28 02:09:00,57.2,41.6,29.65,NNW,344,0.0,0.0,56,0.00,CLR,SKC,0.00,WeatherDisplay:10.37,2013-07-28 08:09:00,
2013-07-28 02:14:00,57.0,42.4,29.65,NNW,344,0.0,0.0,58,0.00,CLR,SKC,0.00,WeatherDisplay:10.37,2013-07-28 08:14:00,
2013-07-28 02:19:00,56.9,44.8,29.65,NNW,344,0.0,0.0,64,0.00,CLR,SKC,0.00,WeatherDisplay:10.37,2013-07-28 08:19:00,
2013-07-28 02:24:00,56.3,43.4,29.65,NNW,344,0.0,0.0,62,0.00,CLR,SKC,0.00,WeatherDisplay:10.37,2013-07-28 08:24:00,
2013-07-28 02:29:00,55.9,42.2,29.65,NNW,344,0.0,0.0,60,0.00,CLR,SKC,0.00,WeatherDisplay:10.37,2013-07-28 08:29:00,
2013-07-28 02:34:00,55.7,40.7,29.65,NNW,344,0.0,0.0,57,0.00,CLR,SKC,0.00,WeatherDisplay:10.37,2013-07-28 08:34:00,
2013-07-28 02:39:00,55.5,40.5,29.65,NNW,344,0.0,0.0,57,0.00,CLR,SKC,0.00,WeatherDisplay:10.37,2013-07-28 08:39:00,
2013-07-28 02:44:00,55.4,40.9,29.65,NNW,344,0.0,0.0,58,0.00,CLR,SKC,0.00,WeatherDisplay:10.37,2013-07-28 08:44:00,
2013-07-28 02:49:00,55.3,42.9,29.65,NNW,344,0.0,0.0,63,0.00,CLR,SKC,0.00,WeatherDisplay:10.37,2013-07-28 08:49:00,
2013-07-28 02:54:00,54.9,42.1,29.65,NNW,344,0.0,0.0,62,0.00,CLR,SKC,0.00,WeatherDisplay:10.37,2013-07-28 08:54:00,
2013-07-28 02:59:00,54.6,42.3,29.65,NNW,344,0.0,0.0,63,0.00,CLR,SKC,0.00,WeatherDisplay:10.37,2013-07-28 08:59:00,
2013-07-28 03:04:00,54.4,40.8,29.65,NNW,344,0.0,0.0,60,0.00,CLR,SKC,0.00,WeatherDisplay:10.37,2013-07-28 09:04:00,
2013-07-28 03:09:00,54.0,40.0,29.65,NNW,344,0.0,0.0,59,0.00,CLR,SKC,0.00,WeatherDisplay:10.37,2013-07-28 09:09:00,
2013-07-28 03:14:00,53.9,42.8,29.65,NNW,344,0.0,0.0,66,0.00,CLR,SKC,0.00,WeatherDisplay:10.37,2013-07-28 09:14:00,
2013-07-28 03:19:00,53.6,42.9,29.65,NNW,344,0.0,0.0,67,0.00,CLR,SKC,0.00,WeatherDisplay:10.37,2013-07-28 09:19:00,
2013-07-28 03:24:00,53.2,42.5,29.65,NNW,344,0.0,0.0,67,0.00,CLR,SKC,0.00,WeatherDisplay:10.37,2013-07-28 09:24:00,
2013-07-28 03:29:00,53.0,41.5,29.65,NNW,344,0.0,0.0,65,0.00,CLR,SKC,0.00,WeatherDisplay:10.37,2013-07-28 09:29:00,
2013-07-28 03:34:00,53.0,38.6,29.65,NNW,344,0.0,0.0,58,0.00,CLR,SKC,0.00,WeatherDisplay:10.37,2013-07-28 09:34:00,
2013-07-28 03:39:00,53.3,41.0,29.65,NNW,344,0.0,0.0,63,0.00,CLR,SKC,0.00,WeatherDisplay:10.37,2013-07-28 09:39:00,
2013-07-28 03:44:00,53.3,41.8,29.65,NNW,344,0.0,0.0,65,0.00,CLR,SKC,0.00,WeatherDisplay:10.37,2013-07-28 09:44:00,
2013-07-28 03:49:00,53.1,40.0,29.65,NNW,344,0.0,0.0,61,0.00,CLR,SKC,0.00,WeatherDisplay:10.37,2013-07-28 09:49:00,
2013-07-28 03:54:00,53.0,41.5,29.65,NNW,344,0.0,0.0,65,0.00,CLR,SKC,0.00,WeatherDisplay:10.37,2013-07-28 09:54:00,
2013-07-28 03:59:00,53.0,41.9,29.65,NNW,344,0.0,0.0,66,0.00,CLR,SKC,0.00,WeatherDisplay:10.37,2013-07-28 09:59:00,
2013-07-28 04:04:00,52.9,42.6,29.65,NNW,344,0.0,0.0,68,0.00,CLR,SKC,0.00,WeatherDisplay:10.37,2013-07-28 10:04:00,
2013-07-28 04:09:00,52.7,42.0,29.65,NNW,344,0.0,0.0,67,0.00,CLR,SKC,0.00,WeatherDisplay:10.37,2013-07-28 10:09:00,
2013-07-28 04:14:00,52.7,40.0,29.65,NNW,344,0.0,0.0,62,0.00,CLR,SKC,0.00,WeatherDisplay:10.37,2013-07-28 10:14:00,
2013-07-28 04:19:00,52.9,41.8,29.65,NNW,344,0.0,0.0,66,0.00,CLR,SKC,0.00,WeatherDisplay:10.37,2013-07-28 10:19:00,
2013-07-28 04:24:00,52.9,43.0,29.66,NNW,344,0.0,0.0,69,0.00,CLR,SKC,0.00,WeatherDisplay:10.37,2013-07-28 10:24:00,
2013-07-28 04:30:00,52.7,43.6,29.66,NNW,344,0.0,0.0,71,0.00,CLR,SKC,0.00,WeatherDisplay:10.37,2013-07-28 10:30:00,
2013-07-28 04:35:00,52.4,43.6,29.66,NNW,344,0.0,0.0,72,0.00,CLR,SKC,0.00,WeatherDisplay:10.37,2013-07-28 10:35:00,
2013-07-28 04:40:00,52.2,43.4,29.66,NNW,344,0.0,0.0,72,0.00,CLR,SKC,0.00,WeatherDisplay:10.37,2013-07-28 10:40:00,
2013-07-28 04:46:00,52.1,42.6,29.66,NNW,344,0.0,0.0,70,0.00,CLR,SKC,0.00,WeatherDisplay:10.37,2013-07-28 10:46:00,
2013-07-28 04:51:00,52.0,42.9,29.66,NNW,344,0.0,0.0,71,0.00,CLR,SKC,0.00,WeatherDisplay:10.37,2013-07-28 10:51:00,
2013-07-28 04:55:00,51.9,43.2,29.66,NNW,344,0.0,0.0,72,0.00,CLR,SKC,0.00,WeatherDisplay:10.37,2013-07-28 10:55:00,
2013-07-28 05:01:00,51.8,42.7,29.66,NNW,344,0.0,0.0,71,0.00,CLR,SKC,0.00,WeatherDisplay:10.37,2013-07-28 11:01:00,
2013-07-28 05:07:00,51.8,43.4,29.66,NNW,344,0.0,0.0,73,0.00,CLR,SKC,0.00,WeatherDisplay:10.37,2013-07-28 11:07:00,
2013-07-28 05:12:00,51.7,44.0,29.66,NNW,344,0.0,0.0,75,0.00,CLR,SKC,0.00,WeatherDisplay:10.37,2013-07-28 11:12:00,
2013-07-28 05:18:00,51.6,43.6,29.66,NNW,344,0.0,0.0,74,0.00,CLR,SKC,0.00,WeatherDisplay:10.37,2013-07-28 11:18:00,
2013-07-28 05:23:00,51.5,44.5,29.66,NNW,344,0.0,0.0,77,0.00,CLR,SKC,0.00,WeatherDisplay:10.37,2013-07-28 11:23:00,
2013-07-28 05:28:00,51.1,43.4,29.66,NNW,344,0.0,0.0,75,0.00,CLR,SKC,0.00,WeatherDisplay:10.37,2013-07-28 11:28:00,
2013-07-28 05:34:00,50.8,42.8,29.66,NNW,344,0.0,0.0,74,0.00,CLR,SKC,0.00,WeatherDisplay:10.37,2013-07-28 11:34:00,
2013-07-28 05:39:00,50.7,43.1,29.66,NNW,344,0.0,0.0,75,0.00,CLR,SKC,0.00,WeatherDisplay:10.37,2013-07-28 11:39:00,
2013-07-28 05:44:00,50.4,42.1,29.66,NNW,344,0.0,0.0,73,0.00,CLR,SKC,0.00,WeatherDisplay:10.37,2013-07-28 11:44:00,
2013-07-28 05:49:00,50.3,42.3,29.66,NNW,344,0.0,0.0,74,0.00,CLR,SKC,0.00,WeatherDisplay:10.37,2013-07-28 11:49:00,
2013-07-28 05:54:00,50.2,40.8,29.66,NNW,344,0.0,0.0,70,0.00,CLR,SKC,0.00,WeatherDisplay:10.37,2013-07-28 11:54:00,
2013-07-28 05:59:00,50.4,41.7,29.66,NNW,344,0.0,0.0,72,0.00,CLR,SKC,0.00,WeatherDisplay:10.37,2013-07-28 11:59:00,
2013-07-28 06:04:00,50.4,43.1,29.66,NNW,344,0.0,0.0,76,0.00,CLR,SKC,0.00,WeatherDisplay:10.37,2013-07-28 12:04:00,
2013-07-28 06:09:00,50.1,42.5,29.66,NNW,344,0.0,0.0,75,0.00,CLR,SKC,0.00,WeatherDisplay:10.37,2013-07-28 12:09:00,
2013-07-28 06:14:00,49.9,43.0,29.66,NNW,344,0.0,0.0,77,0.00,CLR,SKC,0.00,WeatherDisplay:10.37,2013-07-28 12:14:00,
2013-07-28 06:19:00,49.6,42.0,29.66,NNW,344,0.0,0.0,75,0.00,CLR,SKC,0.00,WeatherDisplay:10.37,2013-07-28 12:19:00,
2013-07-28 06:24:00,49.6,42.0,29.66,NNW,344,0.0,0.0,75,0.00,CLR,SKC,0.00,WeatherDisplay:10.37,2013-07-28 12:24:00,
2013-07-28 06:29:00,49.5,41.6,29.66,NNW,344,0.0,0.0,74,0.00,CLR,SKC,0.00,WeatherDisplay:10.37,2013-07-28 12:29:00,
2013-07-28 06:34:00,49.5,41.2,29.66,NNW,344,0.0,0.0,73,0.00,CLR,SKC,0.00,WeatherDisplay:10.37,2013-07-28 12:34:00,
2013-07-28 06:40:00,49.6,42.0,29.67,NNW,344,0.0,0.0,75,0.00,CLR,SKC,0.00,WeatherDisplay:10.37,2013-07-28 12:40:00,
2013-07-28 06:45:00,49.4,42.1,29.67,NNW,344,0.0,0.0,76,0.00,CLR,SKC,0.00,WeatherDisplay:10.37,2013-07-28 12:45:00,
2013-07-28 06:50:00,49.5,42.2,29.67,NNW,344,0.0,0.0,76,0.00,CLR,SKC,0.00,WeatherDisplay:10.37,2013-07-28 12:50:00,
2013-07-28 06:55:00,49.4,42.1,29.67,NNW,344,0.0,0.0,76,0.00,CLR,SKC,0.00,WeatherDisplay:10.37,2013-07-28 12:55:00,
2013-07-28 07:00:00,49.5,42.6,29.67,NNW,344,0.0,0.0,77,0.00,CLR,SKC,0.00,WeatherDisplay:10.37,2013-07-28 13:00:00,
2013-07-28 07:05:00,49.6,42.3,29.67,NNW,344,0.0,0.0,76,0.00,CLR,SKC,0.00,WeatherDisplay:10.37,2013-07-28 13:05:00,
2013-07-28 07:10:00,49.7,43.1,29.67,NNW,344,0.0,0.0,78,0.00,CLR,SKC,0.00,WeatherDisplay:10.37,2013-07-28 13:10:00,
2013-07-28 07:15:00,49.8,43.5,29.67,NNW,344,0.0,0.0,79,0.00,CLR,SKC,0.00,WeatherDisplay:10.37,2013-07-28 13:15:00,
2013-07-28 07:21:00,49.9,44.3,29.67,NNW,344,0.0,0.0,81,0.00,CLR,SKC,0.00,WeatherDisplay:10.37,2013-07-28 13:21:00,
2013-07-28 07:26:00,49.9,43.6,29.67,NNW,344,0.0,0.0,79,0.00,CLR,SKC,0.00,WeatherDisplay:10.37,2013-07-28 13:26:00,
2013-07-28 07:32:00,50.2,43.6,29.67,NNW,344,0.0,0.0,78,0.00,CLR,SKC,0.00,WeatherDisplay:10.37,2013-07-28 13:32:00,
2013-07-28 07:38:00,50.4,43.5,29.68,NNW,344,0.0,0.0,77,0.00,CLR,SKC,0.00,WeatherDisplay:10.37,2013-07-28 13:38:00,
2013-07-28 07:43:00,50.6,43.7,29.68,NNW,344,0.0,0.0,77,0.00,CLR,SKC,0.00,WeatherDisplay:10.37,2013-07-28 13:43:00,
2013-07-28 07:48:00,50.9,43.6,29.68,NNW,344,0.0,0.0,76,0.00,CLR,SKC,0.00,WeatherDisplay:10.37,2013-07-28 13:48:00,
2013-07-28 07:53:00,51.3,44.0,29.68,NNW,344,0.0,0.0,76,0.00,CLR,SKC,0.00,WeatherDisplay:10.37,2013-07-28 13:53:00,
2013-07-28 07:58:00,51.7,45.1,29.68,NNW,344,0.0,0.0,78,0.00,CLR,SKC,0.00,WeatherDisplay:10.37,2013-07-28 13:58:00,
2013-07-28 08:03:00,52.0,44.3,29.68,NNW,344,0.0,0.0,75,0.00,CLR,SKC,0.00,WeatherDisplay:10.37,2013-07-28 14:03:00,
2013-07-28 08:08:00,52.3,43.9,29.68,NNW,344,0.0,0.0,73,0.00,CLR,SKC,0.00,WeatherDisplay:10.37,2013-07-28 14:08:00,
2013-07-28 08:13:00,52.6,44.2,29.68,NNW,344,0.0,0.0,73,0.00,CLR,SKC,0.00,WeatherDisplay:10.37,2013-07-28 14:13:00,
2013-07-28 08:18:00,53.0,45.3,29.68,NNW,344,0.0,0.0,75,0.00,CLR,SKC,0.00,WeatherDisplay:10.37,2013-07-28 14:18:00,
2013-07-28 08:23:00,53.5,46.1,29.68,NNW,344,0.0,0.0,76,0.00,CLR,SKC,0.00,WeatherDisplay:10.37,2013-07-28 14:23:00,
2013-07-28 08:28:00,53.9,46.2,29.68,NNW,344,0.0,0.0,75,0.00,CLR,SKC,0.00,WeatherDisplay:10.37,2013-07-28 14:28:00,
2013-07-28 08:33:00,54.4,45.9,29.68,NNW,344,0.0,0.0,73,0.00,CLR,SKC,0.00,WeatherDisplay:10.37,2013-07-28 14:33:00,
2013-07-28 08:38:00,54.8,45.6,29.68,NNW,344,0.0,0.0,71,0.00,CLR,SKC,0.00,WeatherDisplay:10.37,2013-07-28 14:38:00,
2013-07-28 08:43:00,55.2,45.2,29.68,NNW,344,0.0,0.0,69,0.00,CLR,SKC,0.00,WeatherDisplay:10.37,2013-07-28 14:43:00,
2013-07-28 08:48:00,55.5,45.9,29.68,NNW,344,0.0,0.0,70,0.00,CLR,SKC,0.00,WeatherDisplay:10.37,2013-07-28 14:48:00,
2013-07-28 08:53:00,55.8,46.5,29.68,NNW,344,0.0,0.0,71,0.00,CLR,SKC,0.00,WeatherDisplay:10.37,2013-07-28 14:53:00,
2013-07-28 08:58:00,56.0,45.2,29.68,NNW,344,0.0,0.0,67,0.00,CLR,SKC,0.00,WeatherDisplay:10.37,2013-07-28 14:58:00,
2013-07-28 09:03:00,56.3,45.9,29.68,NNW,344,0.0,0.0,68,0.00,CLR,SKC,0.00,WeatherDisplay:10.37,2013-07-28 15:03:00,
2013-07-28 09:08:00,56.7,45.9,29.67,NNW,344,0.0,0.0,67,0.00,CLR,SKC,0.00,WeatherDisplay:10.37,2013-07-28 15:08:00,
2013-07-28 09:13:00,57.5,44.6,29.67,NNW,344,0.0,0.0,62,0.00,CLR,SKC,0.00,WeatherDisplay:10.37,2013-07-28 15:13:00,
2013-07-28 09:18:00,58.5,44.7,29.67,NNW,344,0.0,0.0,60,0.00,CLR,SKC,0.00,WeatherDisplay:10.37,2013-07-28 15:18:00,
2013-07-28 09:19:00,58.7,44.8,29.67,NNW,344,0.0,0.0,60,0.00,CLR,SKC,0.00,WeatherDisplay:10.37,2013-07-28 15:19:00,
2013-07-28 09:24:00,59.6,43.4,29.67,NNW,344,0.0,0.0,55,0.00,CLR,SKC,0.00,WeatherDisplay:10.37,2013-07-28 15:24:00,
2013-07-28 09:29:00,60.7,44.9,29.67,NNW,347,0.0,0.0,56,0.00,CLR,SKC,0.00,WeatherDisplay:10.37,2013-07-28 15:29:00,
2013-07-28 09:35:00,61.4,46.0,29.67,North,350,0.0,0.0,57,0.00,CLR,SKC,0.00,WeatherDisplay:10.37,2013-07-28 15:35:00,
2013-07-28 09:41:00,62.0,46.1,29.67,North,350,0.0,0.0,56,0.00,CLR,SKC,0.00,WeatherDisplay:10.37,2013-07-28 15:41:00,
2013-07-28 09:46:00,62.5,44.1,29.66,North,350,0.0,0.0,51,0.00,CLR,SKC,0.00,WeatherDisplay:10.37,2013-07-28 15:46:00,
2013-07-28 09:50:00,62.9,46.0,29.66,North,350,0.0,0.0,54,0.00,CLR,SKC,0.00,WeatherDisplay:10.37,2013-07-28 15:50:00,
2013-07-28 09:55:00,63.3,44.9,29.66,North,350,0.0,0.0,51,0.00,CLR,SKC,0.00,WeatherDisplay:10.37,2013-07-28 15:55:00,
2013-07-28 10:00:00,64.0,45.0,29.66,NNE,22,2.3,2.3,50,0.00,CLR,SKC,0.00,WeatherDisplay:10.37,2013-07-28 16:00:00,
2013-07-28 10:05:00,64.6,45.0,29.66,NNE,29,0.0,0.0,49,0.00,CLR,SKC,0.00,WeatherDisplay:10.37,2013-07-28 16:05:00,
2013-07-28 10:10:00,64.9,45.3,29.66,NNE,29,0.0,0.0,49,0.00,CLR,SKC,0.00,WeatherDisplay:10.37,2013-07-28 16:10:00,
2013-07-28 10:15:00,65.4,44.6,29.66,NNE,31,0.0,0.0,47,0.00,CLR,SKC,0.00,WeatherDisplay:10.37,2013-07-28 16:15:00,
2013-07-28 10:20:00,65.9,44.5,29.65,NNE,31,1.1,0.0,46,0.00,CLR,SKC,0.00,WeatherDisplay:10.37,2013-07-28 16:20:00,
2013-07-28 10:25:00,66.4,44.4,29.65,NNE,31,1.1,1.1,45,0.00,CLR,SKC,0.00,WeatherDisplay:10.37,2013-07-28 16:25:00,
2013-07-28 10:30:00,67.0,44.4,29.65,NNE,32,1.1,1.1,44,0.00,CLR,SKC,0.00,WeatherDisplay:10.37,2013-07-28 16:30:00,
2013-07-28 10:35:00,67.2,42.0,29.65,North,11,0.0,0.0,40,0.00,CLR,SKC,0.00,WeatherDisplay:10.37,2013-07-28 16:35:00,
2013-07-28 10:40:00,67.7,42.5,29.65,East,80,1.1,0.0,40,0.00,CLR,SKC,0.00,WeatherDisplay:10.37,2013-07-28 16:40:00,
2013-07-28 10:45:00,68.2,41.6,29.65,North,360,0.0,0.0,38,0.00,CLR,SKC,0.00,WeatherDisplay:10.37,2013-07-28 16:45:00,
2013-07-28 10:50:00,68.6,41.3,29.65,South,182,1.1,0.0,37,0.00,CLR,SKC,0.00,WeatherDisplay:10.37,2013-07-28 16:50:00,
2013-07-28 10:55:00,69.1,41.0,29.64,NNW,347,2.3,2.3,36,0.00,CLR,SKC,0.00,WeatherDisplay:10.37,2013-07-28 16:55:00,
2013-07-28 11:00:00,69.5,42.1,29.64,North,10,2.3,2.3,37,0.00,CLR,SKC,0.00,WeatherDisplay:10.37,2013-07-28 17:00:00,
2013-07-28 11:05:00,69.8,43.0,29.64,North,11,1.1,1.1,38,0.00,CLR,SKC,0.00,WeatherDisplay:10.37,2013-07-28 17:05:00,
2013-07-28 11:10:00,70.4,42.9,29.64,NNE,26,0.0,0.0,37,0.00,CLR,SKC,0.00,WeatherDisplay:10.37,2013-07-28 17:10:00,
2013-07-28 11:15:00,70.9,41.9,29.64,East,83,2.3,2.3,35,0.00,CLR,SKC,0.00,WeatherDisplay:10.37,2013-07-28 17:15:00,
2013-07-28 11:20:00,71.3,43.7,29.64,ENE,65,0.0,0.0,37,0.00,CLR,SKC,0.00,WeatherDisplay:10.37,2013-07-28 17:20:00,
2013-07-28 11:25:00,71.7,41.8,29.64,South,173,3.5,0.0,34,0.00,CLR,SKC,0.00,WeatherDisplay:10.37,2013-07-28 17:25:00,
2013-07-28 11:30:00,71.9,42.0,29.64,South,173,0.0,0.0,34,0.00,CLR,SKC,0.00,WeatherDisplay:10.37,2013-07-28 17:30:00,
2013-07-28 11:35:00,72.1,42.2,29.63,NE,50,2.3,2.3,34,0.00,CLR,SKC,0.00,WeatherDisplay:10.37,2013-07-28 17:35:00,
2013-07-28 11:40:00,72.2,41.5,29.63,NNE,13,1.1,1.1,33,0.00,CLR,SKC,0.00,WeatherDisplay:10.37,2013-07-28 17:40:00,
2013-07-28 11:45:00,72.6,42.6,29.63,SE,134,2.0,2.0,34,0.00,CLR,SKC,0.00,WeatherDisplay:10.37,2013-07-28 17:45:00,
2013-07-28 11:50:00,73.0,41.4,29.63,NNE,24,2.3,2.3,32,0.00,CLR,SKC,0.00,WeatherDisplay:10.37,2013-07-28 17:50:00,
2013-07-28 11:55:00,73.3,40.8,29.62,NNE,24,1.1,1.1,31,0.00,CLR,SKC,0.00,WeatherDisplay:10.37,2013-07-28 17:55:00,
2013-07-28 12:00:00,73.7,40.3,29.62,NE,44,0.0,0.0,30,0.00,CLR,SKC,0.00,WeatherDisplay:10.37,2013-07-28 18:00:00,
2013-07-28 12:07:00,74.4,43.4,29.62,ENE,63,0.0,0.0,33,0.00,CLR,SKC,0.00,WeatherDisplay:10.37,2013-07-28 18:07:00,
2013-07-28 12:12:00,75.1,40.7,29.62,ENE,63,1.1,1.1,29,0.00,CLR,SKC,0.00,WeatherDisplay:10.37,2013-07-28 18:12:00,
2013-07-28 12:17:00,75.8,35.3,29.62,ENE,63,1.0,1.0,23,0.00,CLR,SKC,0.00,WeatherDisplay:10.37,2013-07-28 18:17:00,
2013-07-28 12:22:00,76.4,36.9,29.61,NNE,33,1.1,0.0,24,0.00,CLR,SKC,0.00,WeatherDisplay:10.37,2013-07-28 18:22:00,
2013-07-28 12:28:00,76.7,36.1,29.61,NNE,33,1.1,0.0,23,0.00,CLR,SKC,0.00,WeatherDisplay:10.37,2013-07-28 18:28:00,
2013-07-28 12:33:00,77.1,36.4,29.61,ENE,60,1.1,1.1,23,0.00,CLR,SKC,0.00,WeatherDisplay:10.37,2013-07-28 18:33:00,
2013-07-28 12:38:00,77.5,36.8,29.61,NE,40,1.1,1.1,23,0.00,CLR,SKC,0.00,WeatherDisplay:10.37,2013-07-28 18:38:00,
2013-07-28 12:43:00,77.8,39.1,29.61,NE,43,2.3,2.3,25,0.00,CLR,SKC,0.00,WeatherDisplay:10.37,2013-07-28 18:43:00,
2013-07-28 12:48:00,78.2,36.2,29.61,SSE,155,1.1,1.1,22,0.00,CLR,SKC,0.00,WeatherDisplay:10.37,2013-07-28 18:48:00,
2013-07-28 12:53:00,78.6,35.4,29.61,East,93,1.1,0.0,21,0.00,CLR,SKC,0.00,WeatherDisplay:10.37,2013-07-28 18:53:00,
2013-07-28 12:58:00,78.7,34.2,29.60,ENE,76,2.3,2.3,20,0.00,CLR,SKC,0.00,WeatherDisplay:10.37,2013-07-28 18:58:00,
2013-07-28 13:03:00,78.7,35.5,29.60,East,79,2.3,2.3,21,0.00,CLR,SKC,0.00,WeatherDisplay:10.37,2013-07-28 19:03:00,
2013-07-28 13:08:00,78.9,34.4,29.60,East,79,1.1,1.1,20,0.00,CLR,SKC,0.00,WeatherDisplay:10.37,2013-07-28 19:08:00,
2013-07-28 13:13:00,79.1,35.8,29.60,NE,46,2.3,2.3,21,0.00,CLR,SKC,0.00,WeatherDisplay:10.37,2013-07-28 19:13:00,
2013-07-28 13:18:00,79.7,38.6,29.60,North,5,3.5,3.5,23,0.00,CLR,SKC,0.00,WeatherDisplay:10.37,2013-07-28 19:18:00,
2013-07-28 13:23:00,79.9,33.9,29.60,NE,42,0.0,0.0,19,0.00,CLR,SKC,0.00,WeatherDisplay:10.37,2013-07-28 19:23:00,
2013-07-28 13:28:00,80.1,34.1,29.60,NE,36,2.3,2.3,19,0.00,CLR,SKC,0.00,WeatherDisplay:10.37,2013-07-28 19:28:00,
2013-07-28 13:33:00,80.2,35.5,29.59,WSW,239,1.1,1.1,20,0.00,CLR,SKC,0.00,WeatherDisplay:10.37,2013-07-28 19:33:00,
2013-07-28 13:39:00,80.4,35.6,29.59,East,86,2.3,2.3,20,0.00,CLR,SKC,0.00,WeatherDisplay:10.37,2013-07-28 19:39:00,
2013-07-28 13:45:00,80.6,34.5,29.59,ENE,77,2.3,2.3,19,0.00,CLR,SKC,0.00,WeatherDisplay:10.37,2013-07-28 19:45:00,
2013-07-28 13:51:00,80.9,34.8,29.58,NE,52,1.1,1.1,19,0.00,CLR,SKC,0.00,WeatherDisplay:10.37,2013-07-28 19:51:00,
2013-07-28 13:57:00,81.8,36.8,29.58,NW,315,1.1,1.1,20,0.00,CLR,SKC,0.00,WeatherDisplay:10.37,2013-07-28 19:57:00,
2013-07-28 14:02:00,82.6,36.1,29.58,ENE,72,2.3,2.3,19,0.00,CLR,SKC,0.00,WeatherDisplay:10.37,2013-07-28 20:02:00,
2013-07-28 14:07:00,82.7,36.2,29.58,SW,234,2.3,2.3,19,0.00,CLR,SKC,0.00,WeatherDisplay:10.37,2013-07-28 20:07:00,
2013-07-28 14:12:00,82.7,37.5,29.58,ENE,67,2.3,2.3,20,0.00,CLR,SKC,0.00,WeatherDisplay:10.37,2013-07-28 20:12:00,
2013-07-28 14:17:00,82.7,37.5,29.58,ENE,78,1.0,1.0,20,0.00,CLR,SKC,0.00,WeatherDisplay:10.37,2013-07-28 20:17:00,
2013-07-28 14:22:00,83.0,36.5,29.58,NNE,17,2.3,2.3,19,0.00,CLR,SKC,0.00,WeatherDisplay:10.37,2013-07-28 20:22:00,
2013-07-28 14:27:00,83.6,37.0,29.57,ENE,78,1.1,1.1,19,0.00,CLR,SKC,0.00,WeatherDisplay:10.37,2013-07-28 20:27:00,
2013-07-28 14:32:00,83.5,36.9,29.57,East,94,0.0,0.0,19,0.00,CLR,SKC,0.00,WeatherDisplay:10.37,2013-07-28 20:32:00,
2013-07-28 14:38:00,83.4,36.8,29.57,SW,221,2.3,2.3,19,0.00,CLR,SKC,0.00,WeatherDisplay:10.37,2013-07-28 20:38:00,
2013-07-28 14:43:00,83.8,37.1,29.57,East,89,1.0,2.0,19,0.00,CLR,SKC,0.00,WeatherDisplay:10.37,2013-07-28 20:43:00,
2013-07-28 14:48:00,84.0,37.3,29.57,ENE,65,1.0,2.0,19,0.00,CLR,SKC,0.00,WeatherDisplay:10.37,2013-07-28 20:48:00,
2013-07-28 14:53:00,84.3,36.2,29.57,SE,145,3.5,3.5,18,0.00,CLR,SKC,0.00,WeatherDisplay:10.37,2013-07-28 20:53:00,
2013-07-28 14:58:00,84.5,37.7,29.56,NE,49,1.0,1.0,19,0.00,CLR,SKC,0.00,WeatherDisplay:10.37,2013-07-28 20:58:00,
2013-07-28 15:03:00,84.8,40.5,29.56,NE,49,2.3,2.3,21,0.00,CLR,SKC,0.00,WeatherDisplay:10.37,2013-07-28 21:03:00,
2013-07-28 15:08:00,85.1,36.8,29.56,NNE,32,2.3,2.3,18,0.00,CLR,SKC,0.00,WeatherDisplay:10.37,2013-07-28 21:08:00,
2013-07-28 15:14:00,84.8,36.6,29.56,NE,53,2.3,2.3,18,0.00,CLR,SKC,0.00,WeatherDisplay:10.37,2013-07-28 21:14:00,
2013-07-28 15:19:00,85.2,35.5,29.56,North,350,3.5,3.5,17,0.00,CLR,SKC,0.00,WeatherDisplay:10.37,2013-07-28 21:19:00,
2013-07-28 15:24:00,85.6,37.2,29.56,SW,230,1.1,1.1,18,0.00,CLR,SKC,0.00,WeatherDisplay:10.37,2013-07-28 21:24:00,
2013-07-28 15:30:00,86.0,37.5,29.55,ENE,62,2.3,2.3,18,0.00,CLR,SKC,0.00,WeatherDisplay:10.37,2013-07-28 21:30:00,
2013-07-28 15:35:00,85.7,37.3,29.55,ENE,73,2.3,2.3,18,0.00,CLR,SKC,0.00,WeatherDisplay:10.37,2013-07-28 21:35:00,
2013-07-28 15:40:00,85.5,35.7,29.55,NE,39,2.3,0.0,17,0.00,CLR,SKC,0.00,WeatherDisplay:10.37,2013-07-28 21:40:00,
2013-07-28 15:45:00,85.7,35.9,29.55,East,80,1.1,1.1,17,0.00,CLR,SKC,0.00,WeatherDisplay:10.37,2013-07-28 21:45:00,
2013-07-28 15:50:00,86.3,34.8,29.55,NNE,19,1.1,1.1,16,0.00,CLR,SKC,0.00,WeatherDisplay:10.37,2013-07-28 21:50:00,
2013-07-28 15:55:00,86.5,35.0,29.55,West,279,3.5,3.5,16,0.00,CLR,SKC,0.00,WeatherDisplay:10.37,2013-07-28 21:55:00,
2013-07-28 16:00:00,85.9,34.5,29.55,WSW,248,1.1,1.1,16,0.00,CLR,SKC,0.00,WeatherDisplay:10.37,2013-07-28 22:00:00,
2013-07-28 16:05:00,85.9,36.0,29.55,SSE,150,1.1,0.0,17,0.00,CLR,SKC,0.00,WeatherDisplay:10.37,2013-07-28 22:05:00,
2013-07-28 16:10:00,86.8,36.7,29.55,East,88,2.3,2.3,17,0.00,CLR,SKC,0.00,WeatherDisplay:10.37,2013-07-28 22:10:00,
2013-07-28 16:15:00,87.1,35.5,29.54,ENE,63,0.0,0.0,16,0.00,CLR,SKC,0.00,WeatherDisplay:10.37,2013-07-28 22:15:00,
2013-07-28 16:20:00,87.5,38.8,29.54,ENE,73,2.0,2.0,18,0.00,CLR,SKC,0.00,WeatherDisplay:10.37,2013-07-28 22:20:00,
2013-07-28 16:25:00,86.7,39.5,29.54,ENE,68,2.3,2.3,19,0.00,CLR,SKC,0.00,WeatherDisplay:10.37,2013-07-28 22:25:00,
2013-07-28 16:30:00,85.9,36.0,29.54,ENE,68,0.0,0.0,17,0.00,CLR,SKC,0.00,WeatherDisplay:10.37,2013-07-28 22:30:00,
2013-07-28 16:35:00,85.7,34.3,29.54,North,355,2.3,2.3,16,0.00,CLR,SKC,0.00,WeatherDisplay:10.37,2013-07-28 22:35:00,
2013-07-28 16:40:00,85.8,35.9,29.54,WNW,302,2.0,2.0,17,0.00,CLR,SKC,0.00,WeatherDisplay:10.37,2013-07-28 22:40:00,
2013-07-28 16:45:00,85.9,37.5,29.54,ENE,63,1.1,1.1,18,0.00,CLR,SKC,0.00,WeatherDisplay:10.37,2013-07-28 22:45:00,
2013-07-28 16:50:00,84.8,40.5,29.54,ENE,63,0.0,0.4,21,0.00,CLR,SKC,0.00,WeatherDisplay:10.37,2013-07-28 22:50:00,
2013-07-28 16:55:00,83.7,39.6,29.53,ENE,63,2.3,2.3,21,0.00,CLR,SKC,0.00,WeatherDisplay:10.37,2013-07-28 22:55:00,
2013-07-28 17:00:00,82.6,38.7,29.54,ENE,69,1.1,0.0,21,0.00,CLR,SKC,0.00,WeatherDisplay:10.37,2013-07-28 23:00:00,
2013-07-28 17:05:00,82.1,40.6,29.53,ENE,69,1.1,1.1,23,0.00,CLR,SKC,0.00,WeatherDisplay:10.37,2013-07-28 23:05:00,
2013-07-28 17:10:00,81.8,39.2,29.53,ENE,65,1.1,0.0,22,0.00,CLR,SKC,0.00,WeatherDisplay:10.37,2013-07-28 23:10:00,
2013-07-28 17:15:00,81.5,40.1,29.53,ENE,65,0.0,0.0,23,0.00,CLR,SKC,0.00,WeatherDisplay:10.37,2013-07-28 23:15:00,
2013-07-28 17:20:00,81.6,40.2,29.54,ENE,65,1.1,1.1,23,0.00,CLR,SKC,0.00,WeatherDisplay:10.37,2013-07-28 23:20:00,
2013-07-28 17:25:00,82.0,37.0,29.53,East,80,1.1,1.1,20,0.00,CLR,SKC,0.00,WeatherDisplay:10.37,2013-07-28 23:25:00,
2013-07-28 17:30:00,82.0,38.2,29.53,East,80,0.0,0.0,21,0.00,CLR,SKC,0.00,WeatherDisplay:10.37,2013-07-28 23:30:00,
2013-07-28 17:37:00,82.0,40.5,29.53,East,80,1.1,1.1,23,0.00,CLR,SKC,0.00,WeatherDisplay:10.37,2013-07-28 23:37:00,
2013-07-28 17:42:00,81.9,39.3,29.53,East,80,1.1,1.1,22,0.00,CLR,SKC,0.00,WeatherDisplay:10.37,2013-07-28 23:42:00,
2013-07-28 17:47:00,81.9,36.9,29.53,East,80,1.1,1.1,20,0.00,CLR,SKC,0.00,WeatherDisplay:10.37,2013-07-28 23:47:00,
2013-07-28 17:52:00,82.0,39.4,29.53,East,80,2.3,2.3,22,0.00,CLR,SKC,0.00,WeatherDisplay:10.37,2013-07-28 23:52:00,
2013-07-28 17:53:00,82.0,39.4,29.53,East,80,2.3,2.3,22,0.00,CLR,SKC,0.00,WeatherDisplay:10.37,2013-07-28 23:53:00,
2013-07-28 17:58:00,81.9,38.1,29.53,East,80,1.1,1.1,21,0.00,CLR,SKC,0.00,WeatherDisplay:10.37,2013-07-28 23:58:00,
2013-07-28 18:03:00,81.9,38.1,29.53,East,80,2.3,2.3,21,0.00,CLR,SKC,0.00,WeatherDisplay:10.37,2013-07-29 00:03:00,
2013-07-28 18:08:00,81.7,39.1,29.53,East,80,1.1,0.0,22,0.00,CLR,SKC,0.00,WeatherDisplay:10.37,2013-07-29 00:08:00,
2013-07-28 18:13:00,81.6,41.3,29.53,East,80,0.0,0.0,24,0.00,CLR,SKC,0.00,WeatherDisplay:10.37,2013-07-29 00:13:00,
2013-07-28 18:18:00,81.6,47.2,29.53,West,273,0.0,0.0,30,0.00,CLR,SKC,0.00,WeatherDisplay:10.37,2013-07-29 00:18:00,
2013-07-28 18:23:00,81.6,42.4,29.53,West,274,1.1,1.1,25,0.00,CLR,SKC,0.00,WeatherDisplay:10.37,2013-07-29 00:23:00,
2013-07-28 18:28:00,81.6,37.9,29.53,SW,215,3.5,3.5,21,0.00,CLR,SKC,0.00,WeatherDisplay:10.37,2013-07-29 00:28:00,
2013-07-28 18:33:00,81.5,33.9,29.53,WSW,241,1.0,6.0,18,0.00,CLR,SKC,0.00,WeatherDisplay:10.37,2013-07-29 00:33:00,
2013-07-28 18:35:00,81.6,34.0,29.53,SW,215,4.0,4.0,18,0.00,CLR,SKC,0.00,WeatherDisplay:10.37,2013-07-29 00:35:00,
2013-07-28 18:40:00,81.5,31.0,29.53,NNW,344,1.1,1.1,16,0.00,CLR,SKC,0.00,WeatherDisplay:10.37,2013-07-29 00:40:00,
2013-07-28 18:45:00,81.6,39.1,29.53,North,10,1.1,1.1,22,0.00,CLR,SKC,0.00,WeatherDisplay:10.37,2013-07-29 00:45:00,
2013-07-28 18:50:00,81.4,44.2,29.53,North,10,0.0,0.0,27,0.00,CLR,SKC,0.00,WeatherDisplay:10.37,2013-07-29 00:50:00,
2013-07-28 18:55:00,81.0,33.5,29.53,NE,42,1.1,1.1,18,0.00,CLR,SKC,0.00,WeatherDisplay:10.37,2013-07-29 00:55:00,
2013-07-28 19:00:00,81.2,37.5,29.53,ENE,74,1.1,1.1,21,0.00,CLR,SKC,0.00,WeatherDisplay:10.37,2013-07-29 01:00:00,
2013-07-28 19:06:00,80.9,38.5,29.53,NNE,24,2.3,2.3,22,0.00,CLR,SKC,0.00,WeatherDisplay:10.37,2013-07-29 01:06:00,
2013-07-28 19:11:00,80.6,34.5,29.53,SW,229,3.5,3.5,19,0.00,CLR,SKC,0.00,WeatherDisplay:10.37,2013-07-29 01:11:00,
2013-07-28 19:16:00,80.4,31.6,29.53,SW,235,1.1,1.1,17,0.00,CLR,SKC,0.00,WeatherDisplay:10.37,2013-07-29 01:16:00,
2013-07-28 19:21:00,80.1,32.7,29.54,SW,216,2.3,2.3,18,0.00,CLR,SKC,0.00,WeatherDisplay:10.37,2013-07-29 01:21:00,
2013-07-28 19:26:00,79.7,33.8,29.54,SW,228,4.6,4.6,19,0.00,CLR,SKC,0.00,WeatherDisplay:10.37,2013-07-29 01:26:00,
2013-07-28 19:30:00,79.5,33.6,29.54,SSW,209,2.3,2.3,19,0.00,CLR,SKC,0.00,WeatherDisplay:10.37,2013-07-29 01:30:00,
2013-07-28 19:35:00,79.2,37.1,29.54,SW,223,3.5,3.5,22,0.00,CLR,SKC,0.00,WeatherDisplay:10.37,2013-07-29 01:35:00,
2013-07-28 19:40:00,78.6,36.6,29.54,SW,223,1.1,0.0,22,0.00,CLR,SKC,0.00,WeatherDisplay:10.37,2013-07-29 01:40:00,
2013-07-28 19:45:00,78.1,33.7,29.54,SW,217,2.3,2.3,20,0.00,CLR,SKC,0.00,WeatherDisplay:10.37,2013-07-29 01:45:00,
2013-07-28 19:50:00,77.8,38.1,29.55,WNW,294,4.6,4.6,24,0.00,CLR,SKC,0.00,WeatherDisplay:10.37,2013-07-29 01:50:00,
2013-07-28 19:57:00,78.0,33.7,29.55,SW,217,4.6,4.6,20,0.00,CLR,SKC,0.00,WeatherDisplay:10.37,2013-07-29 01:57:00,
2013-07-28 20:03:00,78.2,35.0,29.55,SW,217,1.1,1.1,21,0.00,CLR,SKC,0.00,WeatherDisplay:10.37,2013-07-29 02:03:00,
2013-07-28 20:08:00,77.8,35.9,29.55,WSW,238,0.0,0.0,22,0.00,CLR,SKC,0.00,WeatherDisplay:10.37,2013-07-29 02:08:00,
2013-07-28 20:13:00,76.8,38.3,29.55,WSW,238,0.0,0.0,25,0.00,CLR,SKC,0.00,WeatherDisplay:10.37,2013-07-29 02:13:00,
2013-07-28 20:18:00,75.6,42.0,29.55,WSW,238,0.0,0.0,30,0.00,CLR,SKC,0.00,WeatherDisplay:10.37,2013-07-29 02:18:00,
2013-07-28 20:23:00,74.4,43.4,29.56,WSW,238,0.0,0.1,33,0.00,CLR,SKC,0.00,WeatherDisplay:10.37,2013-07-29 02:23:00,
2013-07-28 20:28:00,73.3,44.7,29.56,WSW,238,0.0,0.0,36,0.00,CLR,SKC,0.00,WeatherDisplay:10.37,2013-07-29 02:28:00,
2013-07-28 20:34:00,72.2,45.2,29.56,WSW,246,0.0,0.0,38,0.00,CLR,SKC,0.00,WeatherDisplay:10.37,2013-07-29 02:34:00,
2013-07-28 20:40:00,70.6,41.6,29.56,WSW,238,0.0,0.0,35,0.00,CLR,SKC,0.00,WeatherDisplay:10.37,2013-07-29 02:40:00,
2013-07-28 20:46:00,69.9,41.0,29.56,WSW,252,1.1,1.1,35,0.00,CLR,SKC,0.00,WeatherDisplay:10.37,2013-07-29 02:46:00,
2013-07-28 20:51:00,70.4,38.3,29.56,WSW,250,1.1,1.1,31,0.00,CLR,SKC,0.00,WeatherDisplay:10.37,2013-07-29 02:51:00,
2013-07-28 20:57:00,71.4,37.5,29.57,SW,225,2.3,2.3,29,0.00,CLR,SKC,0.00,WeatherDisplay:10.37,2013-07-29 02:57:00,
2013-07-28 21:02:00,71.9,37.0,29.57,SW,225,1.1,0.0,28,0.00,CLR,SKC,0.00,WeatherDisplay:10.37,2013-07-29 03:02:00,
2013-07-28 21:07:00,72.0,40.5,29.57,SW,225,0.0,0.0,32,0.00,CLR,SKC,0.00,WeatherDisplay:10.37,2013-07-29 03:07:00,
2013-07-28 21:12:00,71.5,39.3,29.57,SW,225,0.0,0.0,31,0.00,CLR,SKC,0.00,WeatherDisplay:10.37,2013-07-29 03:12:00,
2013-07-28 21:17:00,70.6,41.6,29.57,SW,225,0.0,0.0,35,0.00,CLR,SKC,0.00,WeatherDisplay:10.37,2013-07-29 03:17:00,
2013-07-28 21:22:00,69.7,42.3,29.57,WSW,248,1.1,1.1,37,0.00,CLR,SKC,0.00,WeatherDisplay:10.37,2013-07-29 03:22:00,
2013-07-28 21:28:00,68.3,41.7,29.58,WSW,248,0.0,0.0,38,0.00,CLR,SKC,0.00,WeatherDisplay:10.37,2013-07-29 03:28:00,
2013-07-28 21:34:00,67.3,42.7,29.58,WSW,248,0.0,0.0,41,0.00,CLR,SKC,0.00,WeatherDisplay:10.37,2013-07-29 03:34:00,
2013-07-28 21:39:00,66.2,41.8,29.58,WSW,248,1.0,0.0,41,0.00,CLR,SKC,0.00,WeatherDisplay:10.37,2013-07-29 03:39:00,
2013-07-28 21:44:00,65.4,44.6,29.59,WSW,250,2.3,2.3,47,0.00,CLR,SKC,0.00,WeatherDisplay:10.37,2013-07-29 03:44:00,
2013-07-28 21:49:00,64.7,40.4,29.59,WSW,241,2.3,2.3,41,0.00,CLR,SKC,0.00,WeatherDisplay:10.37,2013-07-29 03:49:00,
2013-07-28 21:54:00,65.5,37.1,29.59,SW,222,2.3,2.3,35,0.00,CLR,SKC,0.00,WeatherDisplay:10.37,2013-07-29 03:54:00,
2013-07-28 21:59:00,67.3,33.9,29.60,SW,219,2.3,2.3,29,0.00,CLR,SKC,0.00,WeatherDisplay:10.37,2013-07-29 03:59:00,
2013-07-28 22:01:00,67.8,33.5,29.60,SW,233,3.5,3.5,28,0.00,CLR,SKC,0.00,WeatherDisplay:10.37,2013-07-29 04:01:00,
2013-07-28 22:02:00,68.2,35.6,29.60,SW,233,3.5,3.5,30,0.00,CLR,SKC,0.00,WeatherDisplay:10.37,2013-07-29 04:02:00,
2013-07-28 22:03:00,68.4,34.9,29.59,WSW,239,3.0,3.0,29,0.00,CLR,SKC,0.00,WeatherDisplay:10.37,2013-07-29 04:03:00,
2013-07-28 22:04:00,68.6,35.1,29.60,WSW,238,3.5,3.5,29,0.00,CLR,SKC,0.00,WeatherDisplay:10.37,2013-07-29 04:04:00,
2013-07-28 22:07:00,68.7,39.2,29.60,SW,236,3.5,3.5,34,0.00,CLR,SKC,0.00,WeatherDisplay:10.37,2013-07-29 04:07:00,
2013-07-28 22:12:00,67.7,39.8,29.60,WSW,240,1.1,0.0,36,0.00,CLR,SKC,0.00,WeatherDisplay:10.37,2013-07-29 04:12:00,
2013-07-28 22:17:00,66.7,38.9,29.60,WSW,240,1.0,0.0,36,0.00,CLR,SKC,0.00,WeatherDisplay:10.37,2013-07-29 04:17:00,
2013-07-28 22:22:00,65.5,41.2,29.61,WSW,240,1.1,0.0,41,0.00,CLR,SKC,0.00,WeatherDisplay:10.37,2013-07-29 04:22:00,
2013-07-28 22:27:00,64.8,37.9,29.61,WSW,240,0.0,0.0,37,0.00,CLR,SKC,0.00,WeatherDisplay:10.37,2013-07-29 04:27:00,
2013-07-28 22:32:00,64.5,37.6,29.61,WSW,240,1.1,1.1,37,0.00,CLR,SKC,0.00,WeatherDisplay:10.37,2013-07-29 04:32:00,
2013-07-28 22:37:00,63.8,36.3,29.61,WSW,240,1.1,0.0,36,0.00,CLR,SKC,0.00,WeatherDisplay:10.37,2013-07-29 04:37:00,
2013-07-28 22:42:00,64.0,39.8,29.62,WSW,240,0.0,0.0,41,0.00,CLR,SKC,0.00,WeatherDisplay:10.37,2013-07-29 04:42:00,
2013-07-28 22:47:00,63.6,38.8,29.61,WSW,240,0.0,0.0,40,0.00,CLR,SKC,0.00,WeatherDisplay:10.37,2013-07-29 04:47:00,
2013-07-28 22:52:00,63.4,41.1,29.62,WSW,240,1.1,1.1,44,0.00,CLR,SKC,0.00,WeatherDisplay:10.37,2013-07-29 04:52:00,
2013-07-28 22:57:00,63.3,38.6,29.62,WSW,240,1.1,0.0,40,0.00,CLR,SKC,0.00,WeatherDisplay:10.37,2013-07-29 04:57:00,
2013-07-28 23:02:00,63.0,35.6,29.62,WSW,240,0.0,0.0,36,0.00,CLR,SKC,0.00,WeatherDisplay:10.37,2013-07-29 05:02:00,
2013-07-28 23:07:00,62.9,35.5,29.62,WSW,240,0.0,0.0,36,0.00,CLR,SKC,0.00,WeatherDisplay:10.37,2013-07-29 05:07:00,
2013-07-28 23:12:00,63.0,35.6,29.62,WSW,240,0.0,0.0,36,0.00,CLR,SKC,0.00,WeatherDisplay:10.37,2013-07-29 05:12:00,
2013-07-28 23:17:00,63.4,33.8,29.62,WSW,240,0.0,0.0,33,0.00,CLR,SKC,0.00,WeatherDisplay:10.37,2013-07-29 05:17:00,
2013-07-28 23:22:00,63.8,34.9,29.62,West,272,2.3,2.3,34,0.00,CLR,SKC,0.00,WeatherDisplay:10.37,2013-07-29 05:22:00,
2013-07-28 23:27:00,63.8,33.4,29.62,West,260,1.1,1.1,32,0.00,CLR,SKC,0.00,WeatherDisplay:10.37,2013-07-29 05:27:00,
2013-07-28 23:32:00,64.1,31.2,29.62,WSW,247,0.0,0.0,29,0.00,CLR,SKC,0.00,WeatherDisplay:10.37,2013-07-29 05:32:00,
2013-07-28 23:37:00,64.1,32.8,29.62,WSW,247,0.0,0.0,31,0.00,CLR,SKC,0.00,WeatherDisplay:10.37,2013-07-29 05:37:00,
2013-07-28 23:42:00,63.7,34.0,29.62,WSW,247,1.1,1.1,33,0.00,CLR,SKC,0.00,WeatherDisplay:10.37,2013-07-29 05:42:00,
2013-07-28 23:48:00,63.2,32.8,29.63,WSW,247,0.0,0.0,32,0.00,CLR,SKC,0.00,WeatherDisplay:10.37,2013-07-29 05:48:00,
2013-07-28 23:53:00,62.7,31.6,29.63,WSW,247,1.0,1.0,31,0.00,CLR,SKC,0.00,WeatherDisplay:10.37,2013-07-29 05:53:00,
2013-07-28 23:58:00,62.6,31.5,29.63,West,275,1.1,1.1,31,0.00,CLR,SKC,0.00,WeatherDisplay:10.37,2013-07-29 05:58:00,